sat.trackr.live / text

‹ back to catalog

KUIPER-00049

NORAD 64509 · 2025-134K

PAYLOAD ACTIVE UNKNOWN

§ Identity

Operator
Country
US
Launch date
2025-06-23
Launch site
AFETR
Launch vehicle
Mass (kg)
RCS (m²)

External: N2YO · Heavens-Above · Gunter

§ Orbital elements

Epoch: 2026-05-24T23:28:32.686176Z

Period
97.30 min
Inclination
51.9007°
Eccentricity
0.0000482
Mean motion
14.79934668 rev/d
Perigee alt
629.2 km
Apogee alt
629.9 km
Semi-major
7,007.7 km
B*
5.7514e-4
RAAN
250.6831°
Arg perigee
120.2460°
Mean anomaly
239.8550°
Rev number
5,144

§ Raw data

KUIPER-000491 64509U 25134K   26144.97815609  .00004166  00000+0  57514-3 0  99922 64509  51.9007 250.6831 0000482 120.2460 239.8550 14.79934668 51445

JSON: /api/v1/satellites/64509 · /tle

For live sub-satellite position, see the globe view (requires WebGL).

§ Visibility from observer

Set your observer location to see the next 7 days of passes ≥ 10°. The values pass through the URL so the page stays shareable.

No JS? Fill the form by hand. The geolocation button needs JavaScript.